Regional Weather Roundup
Issued by NWS Midland/Odessa, TX

Skip options and go directly to product.
Home | Oldest Version | Next Version | Current Version | All | Text Only | Save Text | Print | Product List | Glossary On

Skip product version selection by date and time.   
588
ASUS44 KMAF 091710
RWRMAF
MIDLAND AREA WEATHER ROUNDUP
NATIONAL WEATHER SERVICE MIDLAND TX
1100 AM CST TUE FEB 09 2016

...IN SOUTHWEST TEXAS AND SOUTHEAST NEW MEXICO...

CITY           SKY/WX    TMP DP  RH WIND       PRES   REMARKS
ALPINE         SUNNY     52  17  24 CALM      30.49F
ANDREWS        FAIR      55  16  22 SW6       30.43S
ARTESIA        SUNNY     41  19  42 NE5       30.44S WCI  38
BIG SPRING     SUNNY     50  20  31 W8        30.45R
CARLSBAD       SUNNY     45  18  34 N6        30.43S
DRYDEN           N/A     59  16  18 S7        30.42F
FORT STOCKTON  SUNNY     53  19  26 S5        30.43F
GUAD PASS      SUNNY     46  13  26 CALM      30.44R
HOBBS          SUNNY     54  14  20 S10       30.43F
MARFA          SUNNY     53  15  22 VRB3      30.45S
MIDLAND AIRPK  SUNNY     55  18  23 W9        30.43F
MIDLAND INTL   SUNNY     56  18  22 SW10      30.42F
ODESSA         SUNNY     56  17  21 W8        30.43F
PECOS          SUNNY     45  19  36 N6        30.46S
PRESIDIO       FAIR      51  15  24 W5        30.44S
SEMINOLE       SUNNY     53  17  23 W5        30.44S
SNYDER           N/A     59  21  23 W12       30.39S
WINK           SUNNY     51  16  24 NW6       30.44S
$$
...OTHER STATIONS IN TEXAS...

CITY           SKY/WX    TMP DP  RH WIND       PRES   REMARKS
ABILENE        SUNNY     60  26  27 NW15      30.35F
AMARILLO       SUNNY     52  22  30 W15G23    30.37F
AUSTIN         SUNNY     58  20  22 CALM      30.38F
BROWNSVILLE    SUNNY     68  28  22 NW8       30.43F
CORPUS CHRISTI MOSUNNY   65  22  19 N8        30.42S
DALLAS FTW     MOSUNNY   53  15  22 NW10      30.30S
DEL RIO        SUNNY     60  20  21 W6        30.44S
EL PASO        SUNNY     48  16  27 CALM      30.41R
HOUSTON INT    SUNNY     55  12  18 NW13G21   30.36F
LUBBOCK        MOSUNNY   57  20  23 W14       30.39R
SAN ANGELO     SUNNY     59  19  21 W10       30.40F
SAN ANTONIO    SUNNY     61  25  25 VRB6      30.40F
WACO           SUNNY     57  14  18 W13       30.33F
WICHITA FALLS  NOT AVBL
$$
...OTHER LOCATIONS IN NEW MEXICO...

CITY           SKY/WX    TMP DP  RH WIND       PRES   REMARKS
ALAMAGORDO     SUNNY     48  16  27 W3        30.44R
ALBUQUERQUE    SUNNY     45  21  38 N10       30.44S WCI  40
CANNON AFB     SUNNY     50  15  25 W13       30.40F
CLOVIS         SUNNY     52  19  28 SW12      30.42S
HOLLOMAN AFB   SUNNY     48  16  27 VRB3      30.42S
ROSWELL        SUNNY     41  18  39 VRB5      30.43S WCI  38
RUIDOSO          N/A     50  16  25 W8        30.43S
SANTA FE       SUNNY     41  20  43 N14       30.43R WCI  33
TRUTH OR CONSE SUNNY     50  20  30 NE7       30.42R
TUCUMCARI      SUNNY     48  18  30 W7        30.41S
$$

USA.gov is the U.S. government's official web portal to all federal, state and local government web resources and services.